Year,Month,Day,Hour,Minute,Value (Times are PST for temperature in C)
2007,06,16,00,00,9.60
2007,06,16,00,01,9.60
2007,06,16,00,02,9.50
2007,06,16,00,03,9.50
2007,06,16,00,04,9.40
2007,06,16,00,05,9.40
2007,06,16,00,06,9.40
2007,06,16,00,07,9.40
2007,06,16,00,08,9.30
2007,06,16,00,09,9.30
2007,06,16,00,10,9.30
2007,06,16,00,11,9.30
2007,06,16,00,12,9.30
2007,06,16,00,13,9.30
2007,06,16,00,14,9.30
2007,06,16,00,15,9.30
2007,06,16,00,16,9.30
2007,06,16,00,17,9.30
2007,06,16,00,18,9.30
2007,06,16,00,19,9.30
2007,06,16,00,20,9.30
2007,06,16,00,21,9.30
2007,06,16,00,22,9.30
2007,06,16,00,23,9.30
2007,06,16,00,24,9.30
2007,06,16,00,25,9.30
2007,06,16,00,26,9.30
2007,06,16,00,27,9.30
2007,06,16,00,28,9.30
2007,06,16,00,29,9.20
2007,06,16,00,30,9.20
2007,06,16,00,31,9.20
2007,06,16,00,32,9.20
2007,06,16,00,33,9.20
2007,06,16,00,34,9.20
2007,06,16,00,35,9.20
2007,06,16,00,36,9.20
2007,06,16,00,37,9.20
2007,06,16,00,38,9.20
2007,06,16,00,39,9.20
2007,06,16,00,40,9.10
2007,06,16,00,41,9.10
2007,06,16,00,42,9.10
2007,06,16,00,43,9.10
2007,06,16,00,44,9.10
2007,06,16,00,45,9.00
2007,06,16,00,46,9.00
2007,06,16,00,47,8.90
2007,06,16,00,48,8.90
2007,06,16,00,49,8.90
2007,06,16,00,50,8.90
2007,06,16,00,51,8.90
2007,06,16,00,52,8.80
2007,06,16,00,53,8.80
2007,06,16,00,54,8.80
2007,06,16,00,55,8.80
2007,06,16,00,56,8.70
2007,06,16,00,57,8.70
2007,06,16,00,58,8.70
2007,06,16,00,59,8.70
2007,06,16,01,00,8.70
2007,06,16,01,01,8.70
2007,06,16,01,02,8.60
2007,06,16,01,03,8.60
2007,06,16,01,04,8.60
2007,06,16,01,05,8.60
2007,06,16,01,06,8.60
2007,06,16,01,07,8.60
2007,06,16,01,08,8.60
2007,06,16,01,09,8.60
2007,06,16,01,10,8.60
2007,06,16,01,11,8.50
2007,06,16,01,12,8.50
2007,06,16,01,13,8.50
2007,06,16,01,14,8.50
2007,06,16,01,15,8.40
2007,06,16,01,16,8.40
2007,06,16,01,17,8.40
2007,06,16,01,18,8.40
2007,06,16,01,19,8.40
2007,06,16,01,20,8.40
2007,06,16,01,21,8.40
2007,06,16,01,22,8.40
2007,06,16,01,23,8.40
2007,06,16,01,24,8.30
2007,06,16,01,25,8.30
2007,06,16,01,26,8.30
2007,06,16,01,27,8.30
2007,06,16,01,28,8.30
2007,06,16,01,29,8.30
2007,06,16,01,30,8.30
2007,06,16,01,31,8.30
2007,06,16,01,32,8.30
2007,06,16,01,33,8.30
2007,06,16,01,34,8.30
2007,06,16,01,35,8.30
2007,06,16,01,36,8.30
2007,06,16,01,37,8.20
2007,06,16,01,38,8.20
2007,06,16,01,39,8.20
2007,06,16,01,40,8.20
2007,06,16,01,41,8.20
2007,06,16,01,42,8.20
2007,06,16,01,43,8.20
2007,06,16,01,44,8.20
2007,06,16,01,45,8.10
2007,06,16,01,46,8.10
2007,06,16,01,47,8.10
2007,06,16,01,48,8.10
2007,06,16,01,49,8.10
2007,06,16,01,50,8.10
2007,06,16,01,51,8.10
2007,06,16,01,52,8.10
2007,06,16,01,53,8.10
2007,06,16,01,54,8.10
2007,06,16,01,55,8.10
2007,06,16,01,56,8.10
2007,06,16,01,57,8.10
2007,06,16,01,58,8.00
2007,06,16,01,59,8.00
2007,06,16,02,00,8.00
2007,06,16,02,01,8.00
2007,06,16,02,02,8.00
2007,06,16,02,03,8.00
2007,06,16,02,04,8.00
2007,06,16,02,05,7.90
2007,06,16,02,06,7.90
2007,06,16,02,07,7.90
2007,06,16,02,08,7.90
2007,06,16,02,09,7.90
2007,06,16,02,10,7.90
2007,06,16,02,11,7.90
2007,06,16,02,12,7.80
2007,06,16,02,13,7.80
2007,06,16,02,14,7.80
2007,06,16,02,15,7.80
2007,06,16,02,16,7.80
2007,06,16,02,17,7.80
2007,06,16,02,18,7.80
2007,06,16,02,19,7.70
2007,06,16,02,20,7.70
2007,06,16,02,21,7.70
2007,06,16,02,22,7.70
2007,06,16,02,23,7.70
2007,06,16,02,24,7.70
2007,06,16,02,25,7.70
2007,06,16,02,26,7.70
2007,06,16,02,27,7.70
2007,06,16,02,28,7.70
2007,06,16,02,29,7.70
2007,06,16,02,30,7.70
2007,06,16,02,31,7.70
2007,06,16,02,32,7.70
2007,06,16,02,33,7.70
2007,06,16,02,34,7.70
2007,06,16,02,35,7.80
2007,06,16,02,36,7.80
2007,06,16,02,37,7.70
2007,06,16,02,38,7.70
2007,06,16,02,39,7.70
2007,06,16,02,40,7.70
2007,06,16,02,41,7.70
2007,06,16,02,42,7.70
2007,06,16,02,43,7.70
2007,06,16,02,44,7.70
2007,06,16,02,45,7.70
2007,06,16,02,46,7.80
2007,06,16,02,47,7.80
2007,06,16,02,48,7.80
2007,06,16,02,49,7.80
2007,06,16,02,50,7.80
2007,06,16,02,51,7.80
2007,06,16,02,52,7.80
2007,06,16,02,53,7.80
2007,06,16,02,54,7.80
2007,06,16,02,55,7.80
2007,06,16,02,56,7.80
2007,06,16,02,57,7.80
2007,06,16,02,58,7.80
2007,06,16,02,59,7.80
2007,06,16,03,00,7.80
2007,06,16,03,01,7.80
2007,06,16,03,02,7.80
2007,06,16,03,03,7.80
2007,06,16,03,04,7.80
2007,06,16,03,05,7.70
2007,06,16,03,06,7.70
2007,06,16,03,07,7.70
2007,06,16,03,08,7.70
2007,06,16,03,09,7.70
2007,06,16,03,10,7.70
2007,06,16,03,11,7.70
2007,06,16,03,12,7.70
2007,06,16,03,13,7.70
2007,06,16,03,14,7.60
2007,06,16,03,15,7.60
2007,06,16,03,16,7.60
2007,06,16,03,17,7.60
2007,06,16,03,18,7.60
2007,06,16,03,19,7.60
2007,06,16,03,20,7.60
2007,06,16,03,21,7.60
2007,06,16,03,22,7.60
2007,06,16,03,23,7.60
2007,06,16,03,24,7.60
2007,06,16,03,25,7.50
2007,06,16,03,26,7.50
2007,06,16,03,27,7.50
2007,06,16,03,28,7.50
2007,06,16,03,29,7.50
2007,06,16,03,30,7.50
2007,06,16,03,31,7.50
2007,06,16,03,32,7.50
2007,06,16,03,33,7.50
2007,06,16,03,34,7.50
2007,06,16,03,35,7.50
2007,06,16,03,36,7.50
2007,06,16,03,37,7.50
2007,06,16,03,38,7.40
2007,06,16,03,39,7.40
2007,06,16,03,40,7.40
2007,06,16,03,41,7.40
2007,06,16,03,42,7.40
2007,06,16,03,43,7.40
2007,06,16,03,44,7.40
2007,06,16,03,45,7.40
2007,06,16,03,46,7.40
2007,06,16,03,47,7.40
2007,06,16,03,48,7.40
2007,06,16,03,49,7.40
2007,06,16,03,50,7.50
2007,06,16,03,51,7.50
2007,06,16,03,52,7.50
2007,06,16,03,53,7.60
2007,06,16,03,54,7.60
2007,06,16,03,55,7.60
2007,06,16,03,56,7.60
2007,06,16,03,57,7.60
2007,06,16,03,58,7.50
2007,06,16,03,59,7.50
2007,06,16,04,00,7.50
2007,06,16,04,01,7.50
2007,06,16,04,02,7.40
2007,06,16,04,03,7.40
2007,06,16,04,04,7.40
2007,06,16,04,05,7.40
2007,06,16,04,06,7.40
2007,06,16,04,07,7.40
2007,06,16,04,08,7.40
2007,06,16,04,09,7.40
2007,06,16,04,10,7.50
2007,06,16,04,11,7.50
2007,06,16,04,12,7.50
2007,06,16,04,13,7.50
2007,06,16,04,14,7.50
2007,06,16,04,15,7.50
2007,06,16,04,16,7.50
2007,06,16,04,17,7.50
2007,06,16,04,18,7.50
2007,06,16,04,19,7.60
2007,06,16,04,20,7.60
2007,06,16,04,21,7.60
2007,06,16,04,22,7.70
2007,06,16,04,23,7.70
2007,06,16,04,24,7.80
2007,06,16,04,25,7.80
2007,06,16,04,26,7.80
2007,06,16,04,27,7.90
2007,06,16,04,28,7.90
2007,06,16,04,29,8.00
2007,06,16,04,30,8.00
2007,06,16,04,31,8.00
2007,06,16,04,32,8.10
2007,06,16,04,33,8.10
2007,06,16,04,34,8.20
2007,06,16,04,35,8.20
2007,06,16,04,36,8.20
2007,06,16,04,37,8.30
2007,06,16,04,38,8.30
2007,06,16,04,39,8.30
2007,06,16,04,40,8.30
2007,06,16,04,41,8.40
2007,06,16,04,42,8.40
2007,06,16,04,43,8.40
2007,06,16,04,44,8.40
2007,06,16,04,45,8.50
2007,06,16,04,46,8.50
2007,06,16,04,47,8.50
2007,06,16,04,48,8.50
2007,06,16,04,49,8.50
2007,06,16,04,50,8.50
2007,06,16,04,51,8.50
2007,06,16,04,52,8.60
2007,06,16,04,53,8.60
2007,06,16,04,54,8.60
2007,06,16,04,55,8.60
2007,06,16,04,56,8.60
2007,06,16,04,57,8.60
2007,06,16,04,58,8.60
2007,06,16,04,59,8.60
2007,06,16,05,00,8.70
2007,06,16,05,01,8.70
2007,06,16,05,02,8.70
2007,06,16,05,03,8.80
2007,06,16,05,04,8.80
2007,06,16,05,05,8.80
2007,06,16,05,06,8.80
2007,06,16,05,07,8.80
2007,06,16,05,08,8.80
2007,06,16,05,09,8.80
2007,06,16,05,10,8.80
2007,06,16,05,11,8.80
2007,06,16,05,12,8.80
2007,06,16,05,13,8.70
2007,06,16,05,14,8.70
2007,06,16,05,15,8.70
2007,06,16,05,16,8.70
2007,06,16,05,17,8.70
2007,06,16,05,18,8.70
2007,06,16,05,19,8.70
2007,06,16,05,20,8.70
2007,06,16,05,21,8.70
2007,06,16,05,22,8.70
2007,06,16,05,23,8.70
2007,06,16,05,24,8.70
2007,06,16,05,25,8.70
2007,06,16,05,26,8.70
2007,06,16,05,27,8.70
2007,06,16,05,28,8.70
2007,06,16,05,29,8.70
2007,06,16,05,30,8.70
2007,06,16,05,31,8.80
2007,06,16,05,32,8.80
2007,06,16,05,33,8.80
2007,06,16,05,34,8.90
2007,06,16,05,35,8.90
2007,06,16,05,36,9.00
2007,06,16,05,37,9.00
2007,06,16,05,38,8.90
2007,06,16,05,39,8.90
2007,06,16,05,40,8.90
2007,06,16,05,41,8.90
2007,06,16,05,42,8.90
2007,06,16,05,43,8.90
2007,06,16,05,44,8.90
2007,06,16,05,45,8.90
2007,06,16,05,46,8.90
2007,06,16,05,47,8.90
2007,06,16,05,48,9.00
2007,06,16,05,49,9.00
2007,06,16,05,50,9.00
2007,06,16,05,51,9.10
2007,06,16,05,52,9.10
2007,06,16,05,53,9.10
2007,06,16,05,54,9.10
2007,06,16,05,55,9.20
2007,06,16,05,56,9.20
2007,06,16,05,57,9.20
2007,06,16,05,58,9.20
2007,06,16,05,59,9.30
2007,06,16,06,00,9.30
2007,06,16,06,01,9.30
2007,06,16,06,02,9.30
2007,06,16,06,03,9.30
2007,06,16,06,04,9.30
2007,06,16,06,05,9.30
2007,06,16,06,06,9.40
2007,06,16,06,07,9.40
2007,06,16,06,08,9.40
2007,06,16,06,09,9.40
2007,06,16,06,10,9.40
2007,06,16,06,11,9.40
2007,06,16,06,12,9.40
2007,06,16,06,13,9.40
2007,06,16,06,14,9.40
2007,06,16,06,15,9.50
2007,06,16,06,16,9.50
2007,06,16,06,17,9.60
2007,06,16,06,18,9.60
2007,06,16,06,19,9.60
2007,06,16,06,20,9.70
2007,06,16,06,21,9.70
2007,06,16,06,22,9.70
2007,06,16,06,23,9.70
2007,06,16,06,24,9.70
2007,06,16,06,25,9.70
2007,06,16,06,26,9.70
2007,06,16,06,27,9.70
2007,06,16,06,28,9.70
2007,06,16,06,29,9.70
2007,06,16,06,30,9.70
2007,06,16,06,31,9.70
2007,06,16,06,32,9.70
2007,06,16,06,33,9.70
2007,06,16,06,34,9.70
2007,06,16,06,35,9.70
2007,06,16,06,36,9.70
2007,06,16,06,37,9.70
2007,06,16,06,38,9.70
2007,06,16,06,39,9.60
2007,06,16,06,40,9.60
2007,06,16,06,41,9.60
2007,06,16,06,42,9.60
2007,06,16,06,43,9.70
2007,06,16,06,44,9.70
2007,06,16,06,45,9.70
2007,06,16,06,46,9.70
2007,06,16,06,47,9.80
2007,06,16,06,48,9.80
2007,06,16,06,49,9.80
2007,06,16,06,50,9.90
2007,06,16,06,51,9.90
2007,06,16,06,52,9.90
2007,06,16,06,53,9.90
2007,06,16,06,54,10.00
2007,06,16,06,55,10.00
2007,06,16,06,56,10.10
2007,06,16,06,57,10.10
2007,06,16,06,58,10.10
2007,06,16,06,59,10.20
2007,06,16,07,00,10.20
2007,06,16,07,01,10.30
2007,06,16,07,02,10.40
2007,06,16,07,03,10.40
2007,06,16,07,04,10.50
2007,06,16,07,05,10.50
2007,06,16,07,06,10.60
2007,06,16,07,07,10.60
2007,06,16,07,08,10.70
2007,06,16,07,09,10.80
2007,06,16,07,10,10.90
2007,06,16,07,11,11.00
2007,06,16,07,12,11.10
2007,06,16,07,13,11.20
2007,06,16,07,14,11.20
2007,06,16,07,15,11.30
2007,06,16,07,16,11.30
2007,06,16,07,17,11.30
2007,06,16,07,18,11.30
2007,06,16,07,19,11.30
2007,06,16,07,20,11.40
2007,06,16,07,21,11.40
2007,06,16,07,22,11.50
2007,06,16,07,23,11.50
2007,06,16,07,24,11.60
2007,06,16,07,25,11.60
2007,06,16,07,26,11.70
2007,06,16,07,27,11.80
2007,06,16,07,28,11.90
2007,06,16,07,29,12.00
2007,06,16,07,30,12.10
2007,06,16,07,31,12.20
2007,06,16,07,32,12.40
2007,06,16,07,33,12.50
2007,06,16,07,34,12.50
2007,06,16,07,35,12.60
2007,06,16,07,36,12.60
2007,06,16,07,37,12.70
2007,06,16,07,38,12.70
2007,06,16,07,39,12.60
2007,06,16,07,40,12.60
2007,06,16,07,41,12.60
2007,06,16,07,42,12.60
2007,06,16,07,43,12.60
2007,06,16,07,44,12.60
2007,06,16,07,45,12.70
2007,06,16,07,46,12.70
2007,06,16,07,47,12.70
2007,06,16,07,48,12.70
2007,06,16,07,49,12.70
2007,06,16,07,50,12.70
2007,06,16,07,51,12.70
2007,06,16,07,52,12.70
2007,06,16,07,53,12.70
2007,06,16,07,54,12.70
2007,06,16,07,55,12.70
2007,06,16,07,56,12.80
2007,06,16,07,57,12.80
2007,06,16,07,58,12.80
2007,06,16,07,59,12.80
2007,06,16,08,00,12.90
2007,06,16,08,01,12.90
2007,06,16,08,02,12.90
2007,06,16,08,03,12.90
2007,06,16,08,04,13.00
2007,06,16,08,05,13.10
2007,06,16,08,06,13.10
2007,06,16,08,07,13.20
2007,06,16,08,08,13.20
2007,06,16,08,09,13.20
2007,06,16,08,10,13.30
2007,06,16,08,11,13.30
2007,06,16,08,12,13.30
2007,06,16,08,13,13.30
2007,06,16,08,14,13.40
2007,06,16,08,15,13.40
2007,06,16,08,16,13.50
2007,06,16,08,17,13.60
2007,06,16,08,18,13.60
2007,06,16,08,19,13.70
2007,06,16,08,20,13.70
2007,06,16,08,21,13.70
2007,06,16,08,22,13.70
2007,06,16,08,23,13.70
2007,06,16,08,24,13.60
2007,06,16,08,25,13.60
2007,06,16,08,26,13.50
2007,06,16,08,27,13.50
2007,06,16,08,28,13.40
2007,06,16,08,29,13.50
2007,06,16,08,30,13.50
2007,06,16,08,31,13.50
2007,06,16,08,32,13.50
2007,06,16,08,33,13.60
2007,06,16,08,34,13.60
2007,06,16,08,35,13.60
2007,06,16,08,36,13.70
2007,06,16,08,37,13.70
2007,06,16,08,38,13.70
2007,06,16,08,39,13.80
2007,06,16,08,40,13.80
2007,06,16,08,41,13.80
2007,06,16,08,42,13.80
2007,06,16,08,43,13.80
2007,06,16,08,44,13.90
2007,06,16,08,45,13.90
2007,06,16,08,46,14.00
2007,06,16,08,47,14.00
2007,06,16,08,48,14.10
2007,06,16,08,49,14.10
2007,06,16,08,50,14.10
2007,06,16,08,51,14.20
2007,06,16,08,52,14.20
2007,06,16,08,53,14.20
2007,06,16,08,54,14.30
2007,06,16,08,55,14.30
2007,06,16,08,56,14.30
2007,06,16,08,57,14.30
2007,06,16,08,58,14.40
2007,06,16,08,59,14.40
2007,06,16,09,00,14.40
2007,06,16,09,01,14.40
2007,06,16,09,02,14.50
2007,06,16,09,03,14.50
2007,06,16,09,04,14.40
2007,06,16,09,05,14.40
2007,06,16,09,06,14.40
2007,06,16,09,07,14.40
2007,06,16,09,08,14.40
2007,06,16,09,09,14.40
2007,06,16,09,10,14.50
2007,06,16,09,11,14.50
2007,06,16,09,12,14.50
2007,06,16,09,13,14.60
2007,06,16,09,14,14.60
2007,06,16,09,15,14.60
2007,06,16,09,16,14.60
2007,06,16,09,17,14.60
2007,06,16,09,18,14.60
2007,06,16,09,19,14.70
2007,06,16,09,20,14.70
2007,06,16,09,21,14.70
2007,06,16,09,22,14.70
2007,06,16,09,23,14.70
2007,06,16,09,24,14.70
2007,06,16,09,25,14.70
2007,06,16,09,26,14.70
2007,06,16,09,27,14.70
2007,06,16,09,28,14.70
2007,06,16,09,29,14.70
2007,06,16,09,30,14.70
2007,06,16,09,31,14.70
2007,06,16,09,32,14.70
2007,06,16,09,33,14.70
2007,06,16,09,34,14.70
2007,06,16,09,35,14.80
2007,06,16,09,36,14.80
2007,06,16,09,37,14.90
2007,06,16,09,38,14.90
2007,06,16,09,39,15.00
2007,06,16,09,40,15.00
2007,06,16,09,41,15.20
2007,06,16,09,42,15.40
2007,06,16,09,43,15.60
2007,06,16,09,44,15.80
2007,06,16,09,45,16.00
2007,06,16,09,46,16.20
2007,06,16,09,47,16.40
2007,06,16,09,48,16.50
2007,06,16,09,49,16.70
2007,06,16,09,50,16.80
2007,06,16,09,51,16.90
2007,06,16,09,52,16.90
2007,06,16,09,53,16.80
2007,06,16,09,54,16.70
2007,06,16,09,55,16.80
2007,06,16,09,56,16.70
2007,06,16,09,57,16.70
2007,06,16,09,58,16.70
2007,06,16,09,59,16.70
2007,06,16,10,00,16.60
2007,06,16,10,01,16.60
2007,06,16,10,02,16.50
2007,06,16,10,03,16.40
2007,06,16,10,04,16.40
2007,06,16,10,05,16.40
2007,06,16,10,06,16.30
2007,06,16,10,07,16.20
2007,06,16,10,08,16.10
2007,06,16,10,09,16.00
2007,06,16,10,10,15.90
2007,06,16,10,11,15.80
2007,06,16,10,12,15.80
2007,06,16,10,13,15.70
2007,06,16,10,14,15.70
2007,06,16,10,15,15.60
2007,06,16,10,16,15.60
2007,06,16,10,17,15.60
2007,06,16,10,18,15.60
2007,06,16,10,19,15.60
2007,06,16,10,20,15.60
2007,06,16,10,21,15.60
2007,06,16,10,22,15.70
2007,06,16,10,23,15.70
2007,06,16,10,24,15.70
2007,06,16,10,25,15.70
2007,06,16,10,26,15.70
2007,06,16,10,27,15.70
2007,06,16,10,28,15.70
2007,06,16,10,29,15.70
2007,06,16,10,30,15.70
2007,06,16,10,31,15.70
2007,06,16,10,32,15.70
2007,06,16,10,33,15.70
2007,06,16,10,34,15.70
2007,06,16,10,35,15.70
2007,06,16,10,36,15.70
2007,06,16,10,37,15.70
2007,06,16,10,38,15.70
2007,06,16,10,39,15.80
2007,06,16,10,40,15.80
2007,06,16,10,41,15.80
2007,06,16,10,42,15.90
2007,06,16,10,43,15.90
2007,06,16,10,44,16.00
2007,06,16,10,45,16.00
2007,06,16,10,46,16.10
2007,06,16,10,47,16.10
2007,06,16,10,48,16.10
2007,06,16,10,49,16.00
2007,06,16,10,50,16.00
2007,06,16,10,51,16.00
2007,06,16,10,52,16.00
2007,06,16,10,53,16.10
2007,06,16,10,54,16.10
2007,06,16,10,55,16.10
2007,06,16,10,56,16.20
2007,06,16,10,57,16.20
2007,06,16,10,58,16.20
2007,06,16,10,59,16.10
2007,06,16,11,00,16.20
2007,06,16,11,01,16.20
2007,06,16,11,02,16.20
2007,06,16,11,03,16.20
2007,06,16,11,04,16.20
2007,06,16,11,05,16.20
2007,06,16,11,06,16.10
2007,06,16,11,07,16.10
2007,06,16,11,08,16.20
2007,06,16,11,09,16.20
2007,06,16,11,10,16.20
2007,06,16,11,11,16.20
2007,06,16,11,12,16.10
2007,06,16,11,13,16.10
2007,06,16,11,14,16.10
2007,06,16,11,15,16.10
2007,06,16,11,16,16.10
2007,06,16,11,17,16.10
2007,06,16,11,18,16.10
2007,06,16,11,19,16.10
2007,06,16,11,20,16.20
2007,06,16,11,21,16.10
2007,06,16,11,22,16.10
2007,06,16,11,23,16.00
2007,06,16,11,24,16.00
2007,06,16,11,25,16.00
2007,06,16,11,26,16.20
2007,06,16,11,27,16.30
2007,06,16,11,28,16.40
2007,06,16,11,29,16.60
2007,06,16,11,30,16.70
2007,06,16,11,31,16.80
2007,06,16,11,32,16.80
2007,06,16,11,33,16.80
2007,06,16,11,34,16.70
2007,06,16,11,35,16.70
2007,06,16,11,36,16.70
2007,06,16,11,37,16.70
2007,06,16,11,38,16.70
2007,06,16,11,39,16.80
2007,06,16,11,40,16.90
2007,06,16,11,41,17.00
2007,06,16,11,42,17.10
2007,06,16,11,43,17.10
2007,06,16,11,44,17.10
2007,06,16,11,45,17.10
2007,06,16,11,46,17.20
2007,06,16,11,47,17.20
2007,06,16,11,48,17.20
2007,06,16,11,49,17.20
2007,06,16,11,50,17.20
2007,06,16,11,51,17.10
2007,06,16,11,52,17.00
2007,06,16,11,53,16.80
2007,06,16,11,54,16.70
2007,06,16,11,55,16.60
2007,06,16,11,56,16.60
2007,06,16,11,57,16.60
2007,06,16,11,58,16.60
2007,06,16,11,59,16.60
2007,06,16,12,00,16.60
2007,06,16,12,01,16.50
2007,06,16,12,02,16.50
2007,06,16,12,03,16.40
2007,06,16,12,04,16.40
2007,06,16,12,05,16.30
2007,06,16,12,06,16.30
2007,06,16,12,07,16.30
2007,06,16,12,08,16.20
2007,06,16,12,09,16.20
2007,06,16,12,10,16.30
2007,06,16,12,11,16.20
2007,06,16,12,12,16.10
2007,06,16,12,13,16.00
2007,06,16,12,14,15.90
2007,06,16,12,15,15.80
2007,06,16,12,16,15.70
2007,06,16,12,17,15.70
2007,06,16,12,18,15.60
2007,06,16,12,19,15.50
2007,06,16,12,20,15.50
2007,06,16,12,21,15.40
2007,06,16,12,22,15.40
2007,06,16,12,23,15.30
2007,06,16,12,24,15.30
2007,06,16,12,25,15.20
2007,06,16,12,26,15.20
2007,06,16,12,27,15.20
2007,06,16,12,28,15.20
2007,06,16,12,29,15.20
2007,06,16,12,30,15.30
2007,06,16,12,31,15.30
2007,06,16,12,32,15.40
2007,06,16,12,33,15.50
2007,06,16,12,34,15.60
2007,06,16,12,35,15.70
2007,06,16,12,36,15.80
2007,06,16,12,37,15.90
2007,06,16,12,38,15.90
2007,06,16,12,39,16.00
2007,06,16,12,40,16.00
2007,06,16,12,41,16.00
2007,06,16,12,42,16.00
2007,06,16,12,43,16.00
2007,06,16,12,44,16.10
2007,06,16,12,45,16.10
2007,06,16,12,46,16.10
2007,06,16,12,47,16.10
2007,06,16,12,48,16.10
2007,06,16,12,49,16.20
2007,06,16,12,50,16.20
2007,06,16,12,51,16.20
2007,06,16,12,52,16.20
2007,06,16,12,53,16.20
2007,06,16,12,54,16.20
2007,06,16,12,55,16.20
2007,06,16,12,56,16.20
2007,06,16,12,57,16.10
2007,06,16,12,58,16.00
2007,06,16,12,59,16.00
2007,06,16,13,00,15.90
2007,06,16,13,01,15.90
2007,06,16,13,02,15.80
2007,06,16,13,03,15.80
2007,06,16,13,04,15.80
2007,06,16,13,05,15.90
2007,06,16,13,06,16.00
2007,06,16,13,07,16.00
2007,06,16,13,08,16.10
2007,06,16,13,09,16.10
2007,06,16,13,10,16.20
2007,06,16,13,11,16.20
2007,06,16,13,12,16.30
2007,06,16,13,13,16.30
2007,06,16,13,14,16.40
2007,06,16,13,15,16.40
2007,06,16,13,16,16.40
2007,06,16,13,17,16.40
2007,06,16,13,18,16.40
2007,06,16,13,19,16.50
2007,06,16,13,20,16.50
2007,06,16,13,21,16.60
2007,06,16,13,22,16.60
2007,06,16,13,23,16.70
2007,06,16,13,24,16.70
2007,06,16,13,25,16.70
2007,06,16,13,26,16.60
2007,06,16,13,27,16.60
2007,06,16,13,28,16.50
2007,06,16,13,29,16.40
2007,06,16,13,30,16.40
2007,06,16,13,31,16.30
2007,06,16,13,32,16.30
2007,06,16,13,33,16.30
2007,06,16,13,34,16.30
2007,06,16,13,35,16.20
2007,06,16,13,36,16.20
2007,06,16,13,37,16.20
2007,06,16,13,38,16.30
2007,06,16,13,39,16.30
2007,06,16,13,40,16.30
2007,06,16,13,41,16.40
2007,06,16,13,42,16.40
2007,06,16,13,43,16.40
2007,06,16,13,44,16.40
2007,06,16,13,45,16.40
2007,06,16,13,46,16.40
2007,06,16,13,47,16.40
2007,06,16,13,48,16.40
2007,06,16,13,49,16.30
2007,06,16,13,50,16.30
2007,06,16,13,51,16.30
2007,06,16,13,52,16.30
2007,06,16,13,53,16.20
2007,06,16,13,54,16.30
2007,06,16,13,55,16.30
2007,06,16,13,56,16.40
2007,06,16,13,57,16.40
2007,06,16,13,58,16.50
2007,06,16,13,59,16.50
2007,06,16,14,00,16.60
2007,06,16,14,01,16.60
2007,06,16,14,02,16.60
2007,06,16,14,03,16.50
2007,06,16,14,04,16.50
2007,06,16,14,05,16.60
2007,06,16,14,06,16.60
2007,06,16,14,07,16.60
2007,06,16,14,08,16.60
2007,06,16,14,09,16.60
2007,06,16,14,10,16.60
2007,06,16,14,11,16.50
2007,06,16,14,12,16.50
2007,06,16,14,13,16.40
2007,06,16,14,14,16.40
2007,06,16,14,15,16.40
2007,06,16,14,16,16.40
2007,06,16,14,17,16.40
2007,06,16,14,18,16.40
2007,06,16,14,19,16.50
2007,06,16,14,20,16.60
2007,06,16,14,21,16.70
2007,06,16,14,22,16.80
2007,06,16,14,23,16.80
2007,06,16,14,24,16.80
2007,06,16,14,25,16.80
2007,06,16,14,26,16.80
2007,06,16,14,27,16.60
2007,06,16,14,28,16.50
2007,06,16,14,29,16.30
2007,06,16,14,30,16.20
2007,06,16,14,31,16.10
2007,06,16,14,32,16.10
2007,06,16,14,33,16.00
2007,06,16,14,34,16.00
2007,06,16,14,35,15.90
2007,06,16,14,36,16.00
2007,06,16,14,37,16.00
2007,06,16,14,38,15.90
2007,06,16,14,39,15.90
2007,06,16,14,40,15.90
2007,06,16,14,41,15.90
2007,06,16,14,42,15.90
2007,06,16,14,43,15.90
2007,06,16,14,44,15.90
2007,06,16,14,45,15.90
2007,06,16,14,46,15.90
2007,06,16,14,47,15.90
2007,06,16,14,48,15.80
2007,06,16,14,49,15.70
2007,06,16,14,50,15.70
2007,06,16,14,51,15.60
2007,06,16,14,52,15.50
2007,06,16,14,53,15.40
2007,06,16,14,54,15.40
2007,06,16,14,55,15.40
2007,06,16,14,56,15.40
2007,06,16,14,57,15.40
2007,06,16,14,58,15.40
2007,06,16,14,59,15.50
2007,06,16,15,00,15.50
2007,06,16,15,01,15.40
2007,06,16,15,02,15.40
2007,06,16,15,03,15.50
2007,06,16,15,04,15.50
2007,06,16,15,05,15.50
2007,06,16,15,06,15.60
2007,06,16,15,07,15.60
2007,06,16,15,08,15.60
2007,06,16,15,09,15.70
2007,06,16,15,10,15.70
2007,06,16,15,11,15.70
2007,06,16,15,12,15.70
2007,06,16,15,13,15.70
2007,06,16,15,14,15.60
2007,06,16,15,15,15.60
2007,06,16,15,16,15.60
2007,06,16,15,17,15.60
2007,06,16,15,18,15.60
2007,06,16,15,19,15.60
2007,06,16,15,20,15.60
2007,06,16,15,21,15.60
2007,06,16,15,22,15.60
2007,06,16,15,23,15.60
2007,06,16,15,24,15.60
2007,06,16,15,25,15.60
2007,06,16,15,26,15.60
2007,06,16,15,27,15.60
2007,06,16,15,28,15.60
2007,06,16,15,29,15.60
2007,06,16,15,30,15.50
2007,06,16,15,31,15.50
2007,06,16,15,32,15.40
2007,06,16,15,33,15.40
2007,06,16,15,34,15.40
2007,06,16,15,35,15.40
2007,06,16,15,36,15.40
2007,06,16,15,37,15.40
2007,06,16,15,38,15.40
2007,06,16,15,39,15.40
2007,06,16,15,40,15.40
2007,06,16,15,41,15.40
2007,06,16,15,42,15.40
2007,06,16,15,43,15.40
2007,06,16,15,44,15.40
2007,06,16,15,45,15.40
2007,06,16,15,46,15.30
2007,06,16,15,47,15.30
2007,06,16,15,48,15.30
2007,06,16,15,49,15.30
2007,06,16,15,50,15.30
2007,06,16,15,51,15.30
2007,06,16,15,52,15.20
2007,06,16,15,53,15.20
2007,06,16,15,54,15.10
2007,06,16,15,55,15.00
2007,06,16,15,56,15.00
2007,06,16,15,57,15.00
2007,06,16,15,58,15.00
2007,06,16,15,59,15.00
2007,06,16,16,00,15.00
2007,06,16,16,01,15.00
2007,06,16,16,02,15.00
2007,06,16,16,03,14.90
2007,06,16,16,04,14.90
2007,06,16,16,05,14.80
2007,06,16,16,06,14.80
2007,06,16,16,07,14.80
2007,06,16,16,08,14.70
2007,06,16,16,09,14.70
2007,06,16,16,10,14.70
2007,06,16,16,11,14.70
2007,06,16,16,12,14.60
2007,06,16,16,13,14.60
2007,06,16,16,14,14.60
2007,06,16,16,15,14.60
2007,06,16,16,16,14.60
2007,06,16,16,17,14.70
2007,06,16,16,18,14.70
2007,06,16,16,19,14.70
2007,06,16,16,20,14.80
2007,06,16,16,21,14.80
2007,06,16,16,22,14.80
2007,06,16,16,23,14.80
2007,06,16,16,24,14.90
2007,06,16,16,25,14.90
2007,06,16,16,26,14.90
2007,06,16,16,27,15.00
2007,06,16,16,28,15.00
2007,06,16,16,29,15.00
2007,06,16,16,30,15.00
2007,06,16,16,31,15.00
2007,06,16,16,32,15.00
2007,06,16,16,33,15.00
2007,06,16,16,34,15.00
2007,06,16,16,35,15.00
2007,06,16,16,36,15.00
2007,06,16,16,37,15.00
2007,06,16,16,38,15.00
2007,06,16,16,39,15.00
2007,06,16,16,40,15.00
2007,06,16,16,41,15.00
2007,06,16,16,42,15.10
2007,06,16,16,43,15.20
2007,06,16,16,44,15.30
2007,06,16,16,45,15.30
2007,06,16,16,46,15.30
2007,06,16,16,47,15.30
2007,06,16,16,48,15.40
2007,06,16,16,49,15.40
2007,06,16,16,50,15.50
2007,06,16,16,51,15.50
2007,06,16,16,52,15.50
2007,06,16,16,53,15.50
2007,06,16,16,54,15.60
2007,06,16,16,55,15.60
2007,06,16,16,56,15.60
2007,06,16,16,57,15.70
2007,06,16,16,58,15.70
2007,06,16,16,59,15.70
2007,06,16,17,00,15.70
2007,06,16,17,01,15.70
2007,06,16,17,02,15.70
2007,06,16,17,03,15.70
2007,06,16,17,04,15.70
2007,06,16,17,05,15.70
2007,06,16,17,06,15.70
2007,06,16,17,07,15.60
2007,06,16,17,08,15.60
2007,06,16,17,09,15.60
2007,06,16,17,10,15.60
2007,06,16,17,11,15.60
2007,06,16,17,12,15.60
2007,06,16,17,13,15.60
2007,06,16,17,14,15.50
2007,06,16,17,15,15.40
2007,06,16,17,16,15.40
2007,06,16,17,17,15.30
2007,06,16,17,18,15.20
2007,06,16,17,19,15.20
2007,06,16,17,20,15.00
2007,06,16,17,21,15.00
2007,06,16,17,22,15.00
2007,06,16,17,23,15.00
2007,06,16,17,24,15.00
2007,06,16,17,25,15.00
2007,06,16,17,26,15.00
2007,06,16,17,27,14.90
2007,06,16,17,28,14.90
2007,06,16,17,29,14.90
2007,06,16,17,30,14.90
2007,06,16,17,31,14.90
2007,06,16,17,32,14.90
2007,06,16,17,33,14.90
2007,06,16,17,34,14.90
2007,06,16,17,35,14.90
2007,06,16,17,36,14.90
2007,06,16,17,37,14.90